Wind_Speed
50 50 50 50 50 49 48 48 47 47 46 45 45 44 44 43 43 43 44 44 44 44 43 44 44 44 45 45 45 46 47 48 49 48 48 48 48 49 50 51 52 53 54
50 50 51 51 50 50 49 48 48 48 47 46 47 46 46 45 45 45 45 45 44 44 44 44 44 44 45 46 46 47 47 48 49 48 47 48 49 50 51 53 54 54 55
50 51 50 51 50 50 49 50 49 48 48 47 48 47 47 47 47 47 46 46 45 45 45 45 45 45 45 47 47 48 49 49 49 48 48 49 50 51 52 53 54 54 54
49 50 51 51 50 49 49 50 49 50 49 49 49 48 47 47 48 48 47 46 46 45 44 45 46 46 47 47 48 49 49 49 49 49 49 49 50 51 52 52 52 52 52
48 48 50 50 50 50 49 49 49 50 50 48 48 48 48 48 47 46 47 46 46 45 45 45 46 47 48 49 49 49 50 50 49 50 50 51 50 51 50 51 51 51 51
49 48 48 48 49 50 49 49 49 49 49 49 49 48 48 48 47 47 47 47 47 46 47 47 47 47 48 49 50 50 50 50 50 50 51 51 50 50 50 51 51 50 50
48 49 49 49 50 51 50 49 49 49 48 48 48 48 48 48 48 48 48 47 48 48 48 48 48 49 49 50 50 50 50 50 50 51 51 51 51 51 51 50 50 50 50
47 48 49 49 50 50 50 49 49 49 48 48 48 48 49 48 48 47 47 48 49 49 49 49 50 50 51 51 51 49 49 49 50 51 51 51 51 51 50 49 49 49 49
46 47 48 48 48 49 49 49 49 49 49 49 49 49 48 48 48 47 47 48 49 49 50 50 50 51 51 51 50 50 49 50 51 52 52 51 51 51 51 50 49 49 48
45 46 48 48 48 48 48 48 48 48 48 48 48 48 48 48 48 47 47 47 47 47 47 48 49 50 50 50 49 50 50 50 51 51 51 51 51 50 51 50 49 49 48
45 46 48 48 48 48 48 48 48 49 49 48 48 48 48 47 47 47 47 47 47 47 48 48 49 49 48 49 49 50 50 50 50 49 49 49 49 50 49 50 49 49 49
44 44 45 46 47 47 48 47 48 48 48 48 48 47 47 47 47 47 48 48 48 48 48 48 48 48 48 48 48 49 49 49 48 48 48 48 48 48 49 48 48 48 48
41 42 43 44 45 46 46 46 46 46 47 47 47 46 46 46 46 47 47 48 48 48 48 48 48 48 48 48 48 47 47 47 47 47 46 46 46 47 47 47 47 47 47
41 41 41 41 42 44 45 45 46 46 46 46 45 45 45 46 46 46 46 47 47 47 47 47 47 47 47 46 46 46 46 46 46 45 45 45 45 45 45 45 45 44 43
39 39 40 40 41 41 42 43 44 44 44 44 45 45 45 45 46 46 46 45 46 46 46 46 46 45 45 45 46 46 46 45 44 44 44 43 43 43 43 42 42 42 41
37 38 38 39 39 40 41 41 42 43 43 43 44 44 45 45 45 45 45 45 46 46 46 45 45 45 45 45 45 44 44 43 43 43 42 42 41 41 41 41 41 40 39
37 37 38 38 38 39 39 40 40 41 42 43 43 43 43 44 44 44 45 45 46 45 45 45 45 45 44 44 43 42 42 42 42 40 40 40 40 40 40 39 39 38 37
36 36 37 37 37 38 38 38 39 39 40 41 42 42 42 42 43 43 44 45 45 44 44 44 44 44 43 42 41 40 40 39 39 39 39 39 39 38 37 36 36 36 36
35 36 36 36 37 37 37 37 37 38 39 39 39 40 40 41 42 43 43 43 43 43 43 42 42 41 40 39 38 38 37 37 37 37 37 37 36 35 35 34 34 34 34
33 35 36 36 36 35 35 35 35 36 36 37 37 38 39 40 41 41 41 41 40 40 40 40 39 37 36 35 35 35 35 35 35 35 34 34 34 34 33 33 33 32 32
31 31 32 34 35 35 35 35 35 35 35 36 36 37 38 38 38 38 38 38 38 37 37 36 34 33 33 33 33 33 33 33 33 33 32 33 33 32 32 31 31 30 30
29 30 30 31 32 33 34 35 35 36 36 36 36 36 36 36 36 36 36 36 35 35 33 32 32 32 32 32 32 31 32 32 31 31 32 32 31 30 30 29 29 29 29
29 30 31 32 32 32 33 34 34 35 36 36 36 35 35 35 34 34 33 33 32 32 31 31 31 30 30 30 30 30 30 30 30 30 30 30 29 28 28 27 28 28 28
29 30 31 31 32 32 33 33 33 34 34 34 34 34 34 33 32 32 31 31 30 29 29 29 29 28 28 28 28 29 28 28 28 29 28 28 27 26 26 26 27 27 28
28 28 29 29 30 31 31 31 31 31 31 31 31 31 31 31 30 29 29 28 28 28 27 27 27 27 27 27 26 26 27 27 27 27 26 26 25 25 25 26 27 27 27
26 26 27 27 27 28 28 29 29 29 28 28 28 28 28 28 27 27 27 27 26 26 25 25 25 25 25 25 25 25 26 26 25 25 25 25 24 25 25 26 26 26 27
Wind_Direction
242 243 243 245 247 248 250 252 253 255 257 257 258 260 263 265 267 269 271 273 275 277 279 280 282 283 286 287 288 290 291 291 291 292 292 292 293 294 295 296 298 299 300
243 243 243 244 246 248 249 251 253 254 256 256 258 260 263 266 268 270 271 274 275 276 278 280 281 283 285 287 289 290 291 292 292 292 292 293 294 295 297 298 299 300 300
243 243 244 244 246 247 249 250 252 254 255 257 259 261 264 265 267 269 271 273 275 276 278 279 281 283 285 286 289 291 292 292 292 292 292 293 294 296 297 299 299 300 300
243 243 243 244 246 248 249 250 252 254 256 258 260 263 264 265 268 269 269 272 273 275 277 279 280 282 285 287 289 291 292 292 291 291 292 293 295 296 297 298 299 299 299
244 244 243 244 246 247 249 251 253 254 256 258 260 263 264 265 267 268 269 271 274 275 277 279 280 282 285 287 289 291 291 292 292 292 292 293 295 296 297 298 298 299 299
244 244 244 245 247 248 250 251 253 255 256 257 259 261 264 265 266 268 270 271 273 274 276 278 281 283 285 287 289 290 291 291 292 292 293 293 295 296 297 298 297 297 298
245 245 244 246 247 249 251 253 255 256 257 259 259 261 262 265 267 268 270 271 272 274 277 279 280 282 285 287 288 289 291 292 293 293 294 294 295 296 297 297 297 298 299
245 245 244 245 247 249 251 253 255 256 258 258 260 261 263 264 266 269 270 271 273 276 278 279 281 282 285 286 287 288 290 292 292 294 295 295 295 295 296 297 298 298 298
245 245 245 246 249 250 252 253 255 257 258 259 260 262 263 264 267 269 271 273 274 276 277 279 281 283 285 286 287 288 289 290 292 294 294 295 295 295 295 296 298 299 299
244 244 245 246 249 250 252 255 257 257 258 259 260 263 265 267 269 271 272 274 276 278 279 280 282 284 284 285 287 288 289 290 292 292 293 294 295 295 295 296 297 298 299
245 246 247 248 250 251 254 256 256 257 258 259 261 263 266 268 270 272 273 274 276 278 280 281 283 284 284 285 287 288 289 290 291 291 292 293 294 294 295 295 296 298 299
248 249 250 250 251 252 254 255 257 257 259 260 262 264 266 268 270 272 274 275 276 278 279 281 283 284 285 286 288 289 290 290 290 291 292 293 294 294 295 295 296 297 298
251 251 252 252 253 253 254 255 257 258 260 260 261 263 266 268 270 271 274 276 277 279 280 281 283 283 285 286 287 289 289 290 291 292 293 294 294 295 296 296 297 298 299
254 254 254 254 255 255 256 257 258 259 260 261 263 264 265 267 270 272 275 277 278 280 281 282 283 284 285 286 287 288 289 290 291 292 293 294 295 296 297 298 298 299 299
255 255 255 256 256 258 258 259 260 261 262 263 264 264 266 268 270 273 275 277 278 280 281 281 282 283 284 285 287 288 289 289 290 291 293 294 295 296 298 298 299 300 300
255 255 256 257 258 260 260 261 262 263 264 265 266 267 269 271 272 274 275 277 278 280 280 281 282 283 284 286 287 288 288 289 290 292 293 294 295 297 297 297 299 299 299
255 256 256 257 259 261 262 263 263 264 265 266 267 270 271 272 273 274 276 278 279 280 280 281 282 283 284 286 286 286 288 289 290 291 292 294 295 297 298 298 298 299 299
256 256 257 258 260 261 262 263 264 265 265 266 268 270 271 272 273 275 276 277 278 279 280 281 281 282 283 284 285 286 287 288 289 290 292 294 295 297 297 298 298 299 300
259 259 259 259 259 260 262 263 265 266 267 268 269 270 271 272 274 275 276 277 278 279 280 280 281 281 281 281 283 284 285 287 289 291 292 294 296 297 298 298 299 300 301
262 261 260 260 260 261 262 264 265 266 267 268 270 271 272 273 274 275 275 277 278 279 280 280 280 279 279 280 282 284 285 287 289 290 292 293 295 297 298 298 299 300 302
264 264 263 263 263 263 263 263 265 266 267 269 271 272 274 275 275 275 276 277 278 279 279 279 278 277 278 280 282 284 285 287 289 289 291 293 294 296 297 298 300 302 304
267 266 266 266 265 264 265 265 266 267 268 269 271 272 274 275 275 276 277 277 277 277 276 276 276 277 279 281 282 283 285 287 288 289 290 292 293 295 297 299 300 303 305
270 269 269 268 267 267 268 268 269 269 269 269 269 270 271 272 274 275 276 277 277 276 275 275 276 278 279 281 282 283 284 286 287 289 291 293 294 296 297 299 301 303 305
273 272 270 269 268 269 269 269 270 270 269 269 269 269 269 271 273 274 275 276 276 275 275 275 277 278 280 281 282 284 285 287 288 290 292 293 294 295 297 299 301 304 306
275 273 271 270 269 268 268 269 270 270 270 270 269 268 268 270 271 272 274 274 274 273 274 275 277 278 280 281 283 285 287 288 290 291 292 293 294 296 298 300 302 304 306
275 275 274 272 270 268 268 269 270 270 271 270 269 268 269 269 271 272 272 272 273 274 275 277 277 277 279 281 284 286 288 290 291 293 293 294 295 297 299 301 302 304 305
Height
5693 5697 5701 5704 5707 5710 5713 5716 5718 5720 5722 5724 5725 5726 5727 5728 5729 5729 5729 5729 5729 5728 5727 5726 5725 5723 5721 5719 5716 5714 5711 5708 5706 5704 5700 5696 5692 5688 5684 5680 5676 5671 5666
5682 5686 5689 5692 5696 5699 5702 5705 5707 5710 5712 5713 5715 5716 5717 5718 5718 5719 5719 5719 5718 5718 5717 5716 5714 5712 5710 5708 5705 5703 5700 5697 5694 5692 5688 5684 5680 5676 5672 5668 5663 5658 5653
5670 5674 5678 5681 5685 5688 5691 5694 5696 5698 5701 5702 5704 5705 5706 5707 5707 5708 5708 5708 5707 5707 5706 5705 5703 5701 5699 5697 5694 5691 5688 5685 5682 5679 5676 5672 5668 5664 5660 5655 5650 5645 5639
5659 5663 5667 5670 5674 5677 5680 5682 5685 5687 5689 5691 5693 5694 5695 5695 5696 5696 5696 5696 5696 5695 5694 5693 5692 5690 5688 5686 5683 5680 5676 5673 5669 5666 5664 5660 5656 5651 5647 5643 5638 5632 5627
5648 5652 5656 5659 5663 5666 5669 5671 5674 5676 5678 5680 5681 5682 5683 5684 5684 5685 5685 5685 5685 5684 5683 5682 5680 5678 5676 5674 5671 5667 5664 5660 5657 5654 5651 5648 5644 5639 5634 5630 5625 5620 5615
5637 5641 5645 5649 5652 5654 5657 5660 5662 5664 5666 5668 5669 5671 5672 5672 5673 5673 5673 5673 5673 5672 5671 5670 5668 5666 5664 5661 5658 5655 5651 5648 5645 5642 5638 5635 5631 5626 5621 5616 5612 5608 5604
5627 5630 5634 5637 5640 5643 5646 5649 5651 5653 5654 5656 5657 5659 5660 5660 5661 5661 5661 5661 5661 5660 5659 5658 5656 5654 5651 5649 5646 5642 5639 5635 5632 5629 5625 5621 5618 5614 5609 5604 5599 5594 5590
5616 5619 5623 5626 5629 5632 5634 5636 5639 5641 5643 5644 5646 5647 5648 5648 5649 5649 5649 5649 5649 5648 5647 5645 5644 5641 5639 5636 5633 5630 5627 5623 5619 5616 5612 5609 5604 5599 5595 5591 5587 5582 5577
5605 5608 5611 5614 5617 5620 5622 5624 5626 5629 5630 5632 5633 5635 5635 5636 5636 5637 5636 5636 5636 5635 5634 5632 5631 5629 5626 5623 5620 5618 5614 5610 5606 5602 5599 5595 5590 5586 5582 5578 5574 5570 5566
5594 5597 5600 5603 5605 5608 5610 5612 5614 5616 5618 5619 5621 5622 5623 5624 5624 5624 5624 5624 5623 5623 5621 5619 5617 5615 5612 5609 5607 5604 5601 5598 5594 5590 5586 5582 5577 5573 5569 5565 5561 5557 5553
5583 5585 5588 5591 5593 5596 5598 5600 5602 5604 5606 5607 5609 5610 5611 5611 5611 5611 5611 5611 5610 5610 5608 5607 5604 5601 5599 5596 5594 5591 5588 5585 5581 5577 5573 5569 5565 5561 5557 5553 5549 5544 5540
5572 5574 5577 5579 5581 5583 5585 5587 5589 5591 5593 5595 5596 5597 5598 5598 5599 5598 5598 5598 5597 5596 5595 5594 5591 5588 5586 5584 5581 5578 5575 5572 5568 5565 5561 5557 5553 5549 5545 5540 5536 5532 5527
5561 5563 5565 5567 5569 5571 5573 5575 5577 5579 5580 5582 5583 5585 5585 5586 5586 5586 5585 5585 5584 5583 5582 5580 5578 5576 5573 5571 5568 5565 5562 5559 5556 5553 5549 5545 5541 5537 5533 5529 5524 5520 5515
5550 5552 5554 5556 5558 5560 5561 5563 5565 5566 5568 5569 5570 5572 5573 5573 5573 5573 5572 5572 5571 5570 5568 5567 5565 5563 5561 5558 5556 5553 5550 5547 5544 5540 5536 5533 5529 5525 5521 5517 5513 5509 5505
5540 5541 5543 5545 5547 5548 5550 5551 5552 5554 5555 5557 5558 5559 5560 5561 5560 5560 5560 5559 5558 5557 5555 5554 5552 5550 5548 5546 5543 5540 5537 5534 5531 5528 5525 5521 5518 5514 5510 5506 5502 5498 5494
5529 5531 5533 5534 5536 5537 5538 5540 5540 5542 5543 5544 5546 5547 5547 5548 5548 5547 5547 5546 5545 5544 5542 5541 5540 5538 5536 5533 5531 5528 5525 5522 5519 5516 5513 5510 5506 5503 5499 5495 5491 5487 5484
5519 5521 5522 5524 5525 5526 5527 5528 5529 5530 5531 5532 5533 5534 5534 5535 5535 5534 5534 5533 5532 5530 5529 5528 5527 5525 5523 5520 5518 5516 5513 5510 5508 5505 5502 5499 5495 5492 5488 5485 5481 5477 5474
5508 5510 5511 5513 5514 5515 5516 5517 5518 5519 5520 5520 5521 5521 5522 5522 5522 5521 5520 5520 5519 5517 5516 5515 5514 5512 5510 5508 5506 5504 5502 5499 5497 5494 5491 5488 5485 5482 5478 5475 5471 5468 5465
5498 5499 5501 5502 5503 5504 5505 5506 5507 5508 5508 5509 5509 5509 5509 5509 5509 5508 5507 5507 5506 5505 5503 5502 5500 5499 5497 5496 5494 5493 5491 5488 5486 5484 5481 5478 5475 5472 5469 5465 5462 5459 5455
5488 5489 5490 5491 5492 5493 5494 5495 5496 5496 5497 5497 5498 5498 5497 5497 5496 5495 5494 5494 5493 5492 5491 5490 5488 5487 5486 5485 5484 5482 5480 5478 5476 5474 5471 5469 5466 5463 5460 5457 5453 5450 5447
5478 5479 5480 5480 5481 5482 5483 5484 5485 5485 5486 5486 5486 5486 5485 5485 5484 5483 5483 5482 5481 5481 5479 5478 5477 5476 5475 5475 5473 5472 5471 5469 5467 5464 5462 5460 5457 5454 5451 5448 5445 5442 5439
5469 5469 5470 5470 5471 5471 5472 5473 5474 5474 5475 5475 5475 5475 5474 5473 5473 5472 5472 5471 5470 5470 5469 5468 5467 5467 5466 5465 5464 5462 5461 5460 5458 5456 5453 5451 5448 5446 5443 5440 5438 5435 5432
5459 5459 5460 5460 5460 5461 5461 5462 5462 5463 5463 5463 5463 5463 5463 5463 5462 5462 5461 5461 5460 5459 5459 5458 5458 5457 5456 5455 5454 5453 5452 5451 5449 5447 5445 5442 5440 5438 5435 5433 5430 5427 5425
5450 5450 5450 5450 5450 5451 5451 5452 5452 5452 5452 5452 5452 5452 5452 5452 5452 5452 5451 5451 5450 5450 5450 5449 5449 5448 5447 5446 5445 5444 5443 5441 5440 5438 5436 5434 5432 5430 5428 5426 5423 5421 5418
5441 5440 5440 5440 5440 5441 5441 5441 5442 5442 5442 5442 5442 5442 5442 5442 5442 5442 5442 5442 5442 5441 5441 5440 5440 5440 5439 5438 5437 5436 5434 5433 5431 5430 5428 5426 5425 5422 5420 5418 5416 5413 5410
5432 5432 5431 5431 5431 5431 5432 5432 5432 5432 5432 5432 5433 5433 5433 5433 5433 5434 5434 5434 5433 5433 5433 5432 5432 5431 5431 5430 5429 5428 5427 5425 5424 5422 5420 5419 5417 5415 5413 5411 5409 5406 5403